Voltar ao catálogo

STARLINK-37162

AtivoComunicaçõesVLEO
NORAD 68262·PAYLOAD·🇺🇸 United States

Lançado Mar 19, 2026 de Vandenberg Space Force Base

Loading…

Próximas Passagens (próximas 24 horas)

TLE

AtualizadoSource: CelesTrak SupGP

Época: Sep 14, 2026, 22:37 UTC

1 68262C 26055A   26257.94284722 -.00078982  00000+0 -23338-2 0  2575
2 68262  53.1576 155.9468 0001300 102.5202 359.9547 15.34426062    13

Acompanhe STARLINK-37162 em tempo real com AllMySat

Download on the App Store